Wind_Speed
16 16 17 16 17 18 19 20 24 27 28 29 30 32 32 31 30 29 29 30 31 30 30 29 28 28 28 28 28 26 25 24 23 23 22 22 21 20 20 19 19 19 18 17 16 16 16 15 15 14 14 14 14 14 14 14 13 12 11 11 10 9 10
15 15 16 16 17 19 20 22 25 27 28 30 30 31 32 32 32 31 30 30 31 31 30 30 29 29 28 28 28 27 26 25 24 23 22 21 20 21 21 20 20 20 20 19 16 15 15 15 15 15 14 14 14 14 14 14 14 13 12 12 11 11 10
14 14 16 17 17 19 20 21 25 28 29 30 31 32 33 33 33 32 30 30 31 30 30 30 30 29 28 28 29 28 27 26 25 24 23 22 22 22 21 21 21 21 20 20 18 16 15 15 15 15 15 14 14 14 14 15 15 14 13 13 12 12 11
15 15 16 18 19 19 20 21 24 29 30 32 33 34 34 34 33 32 30 31 32 32 31 31 31 29 28 29 28 27 27 27 26 25 25 24 23 22 21 21 21 21 20 20 20 18 16 15 15 15 15 15 14 14 14 15 14 14 14 14 13 12 12
18 17 16 17 18 18 18 20 24 28 31 33 34 34 34 34 33 32 31 31 32 33 33 32 31 30 29 29 27 26 27 28 27 25 25 24 22 21 22 22 22 22 22 21 20 19 18 16 16 15 15 15 15 15 15 15 15 14 14 14 13 13 13
16 16 15 16 17 18 19 21 25 31 32 33 35 34 34 34 34 34 33 32 32 33 33 32 32 31 30 30 28 26 27 28 28 27 25 24 23 22 23 23 22 22 22 21 20 19 19 19 18 16 15 15 16 16 16 15 15 15 14 14 14 13 13
15 15 15 16 17 18 20 21 26 31 33 33 33 33 33 34 34 34 32 32 33 33 33 34 33 32 31 30 29 28 28 28 29 28 26 24 24 23 23 23 23 22 21 21 20 19 19 19 19 18 17 16 15 16 16 15 15 15 14 14 14 14 14
15 15 15 17 17 18 19 20 23 28 30 30 30 31 32 33 33 34 33 33 33 34 34 34 34 33 32 31 30 30 29 28 28 28 27 25 25 25 24 23 23 22 21 21 21 20 20 20 19 19 18 17 16 16 16 15 15 15 14 15 14 15 15
15 15 16 17 18 18 18 18 21 26 28 29 30 32 34 34 33 35 35 34 34 34 35 35 34 34 32 31 31 31 30 29 28 27 27 27 26 26 25 24 23 23 22 22 21 20 21 20 19 19 20 19 18 17 17 16 16 15 15 15 15 15 15
15 15 16 17 17 16 16 17 19 20 22 26 29 31 32 33 33 34 34 34 34 35 36 35 34 33 32 32 31 31 30 29 29 28 28 28 27 27 26 25 23 23 24 23 22 21 21 21 20 20 20 20 19 19 18 18 17 17 16 16 16 15 15
11 13 14 15 15 16 16 17 17 16 19 24 28 29 31 32 33 33 34 35 35 34 35 35 33 33 33 32 31 31 31 30 30 29 30 29 28 28 27 26 24 24 24 24 23 21 21 21 21 21 21 21 21 20 20 19 19 18 18 17 16 16 16
7 8 10 11 13 14 15 15 16 16 18 23 28 29 30 31 32 32 33 35 34 33 34 34 33 33 33 32 32 32 32 31 31 30 30 30 29 28 27 26 25 24 24 24 24 23 22 21 21 22 22 22 21 21 21 20 20 20 19 18 17 16 16
5 6 8 9 10 11 12 13 15 17 19 24 28 30 30 31 32 32 32 33 33 32 33 33 33 33 32 32 32 32 33 32 32 31 30 29 29 27 27 27 26 25 24 23 24 24 23 22 22 22 22 22 22 21 20 20 20 20 20 20 18 17 17
5 6 7 9 10 12 14 14 16 17 19 23 27 28 29 30 31 32 32 33 33 32 32 33 33 33 33 32 31 32 33 33 31 31 30 29 28 27 26 26 26 25 24 23 23 24 24 23 22 21 21 22 22 21 21 20 20 20 20 20 19 19 18
5 6 7 10 12 14 15 15 16 17 19 22 25 27 28 28 29 30 30 31 32 32 32 32 33 33 33 32 32 32 32 31 30 29 29 28 28 27 26 26 25 25 24 23 23 23 24 24 23 22 21 21 21 21 21 21 21 21 21 21 20 20 19
6 6 6 8 11 14 16 16 17 18 19 20 24 27 28 27 28 30 30 31 32 33 33 32 32 33 33 32 32 31 31 30 29 29 29 29 28 28 28 26 25 25 25 24 23 23 23 23 23 22 21 21 21 21 22 22 22 23 25 24 22 20 19
7 6 6 6 8 11 15 16 17 18 18 20 25 29 29 28 29 30 31 31 33 34 33 33 33 34 34 32 31 30 30 30 29 29 30 30 29 29 28 27 25 25 25 24 24 23 22 22 23 23 22 21 21 21 22 22 22 25 27 28 25 22 19
10 9 8 7 7 8 11 15 17 19 20 22 27 30 30 29 30 30 31 32 33 34 34 34 34 33 33 31 29 30 30 30 30 29 29 29 29 29 29 28 26 25 25 25 24 23 22 22 23 23 22 21 21 21 22 21 23 26 28 29 29 27 22
12 12 11 10 9 10 11 13 15 18 21 24 28 31 32 32 32 32 33 33 32 33 33 33 33 32 31 30 29 30 30 30 29 29 29 29 28 28 27 28 27 26 25 25 23 23 23 23 22 22 22 22 21 21 21 21 22 26 28 29 29 29 27
14 14 14 13 12 12 12 12 13 17 23 27 30 33 34 33 32 31 31 31 31 31 32 32 31 30 30 30 30 30 30 29 29 29 29 28 28 27 27 28 29 27 25 24 23 23 23 23 23 22 22 22 22 22 21 21 22 24 27 29 28 28 29
14 15 15 15 14 14 12 13 15 17 22 28 31 31 31 31 30 29 29 29 31 31 31 31 30 29 29 30 30 29 30 30 29 29 28 28 27 27 28 28 28 27 26 24 23 24 23 23 23 23 22 22 22 22 22 22 23 25 26 27 28 27 28
15 16 16 16 16 16 15 16 18 19 22 26 28 29 30 31 30 29 29 30 30 31 31 30 29 28 29 30 30 30 30 31 30 29 28 28 28 28 28 27 27 27 26 24 23 23 22 22 22 23 23 23 23 23 23 23 24 26 27 28 27 26 26
16 17 17 17 18 20 20 20 21 21 22 24 26 29 30 31 31 30 29 29 29 30 30 30 29 28 29 30 30 30 31 31 30 29 29 28 29 28 28 27 27 26 26 25 23 22 22 22 22 23 23 24 24 24 24 23 24 27 29 29 28 27 27
18 17 17 18 19 21 21 20 20 20 21 24 27 30 29 29 30 30 28 28 29 30 30 29 29 29 29 30 30 29 30 30 30 29 29 29 29 29 28 27 26 26 26 25 25 23 22 22 22 22 23 24 24 24 24 23 24 27 29 30 30 29 28
18 17 18 20 20 19 18 16 16 18 21 24 27 29 29 30 31 29 28 28 29 29 29 29 30 30 30 30 29 28 29 29 29 29 28 28 28 27 27 26 26 25 25 25 25 24 23 22 22 21 22 22 23 25 25 24 24 26 29 30 30 31 30
17 16 18 20 20 19 16 13 14 17 21 24 26 28 30 31 31 28 27 28 28 28 29 29 30 30 29 28 28 27 27 28 28 28 27 27 26 25 25 25 24 24 24 24 24 23 23 23 22 21 21 21 22 23 25 25 24 25 29 30 30 32 32
17 17 17 17 17 16 13 11 14 17 20 23 26 28 29 30 29 27 27 27 27 28 29 29 28 27 27 27 27 27 27 27 27 28 27 25 24 24 24 24 24 24 24 23 23 23 22 22 22 21 21 21 21 22 24 25 25 26 28 30 30 32 32
13 14 14 13 12 12 10 10 14 17 19 23 26 28 29 29 28 26 27 27 28 29 28 26 26 26 26 27 27 26 26 27 27 27 26 24 24 24 24 24 23 23 23 23 22 22 21 21 20 20 20 20 20 21 22 23 25 26 28 30 31 31 33
9 10 10 9 8 7 6 8 13 16 18 22 26 27 28 28 26 26 27 27 27 27 26 25 25 26 26 27 27 26 26 26 26 26 25 24 25 25 24 23 23 22 22 22 21 20 20 20 20 19 19 19 19 20 21 22 24 27 29 31 31 32 33
7 8 8 7 6 5 4 4 10 15 17 20 23 24 25 27 25 24 25 26 25 25 24 24 25 25 25 26 26 24 24 24 25 25 24 24 24 24 23 22 22 21 21 21 21 20 20 20 21 21 20 20 20 21 22 22 22 25 29 32 33 33 33
9 10 10 9 8 4 2 1 3 7 12 17 20 20 21 23 22 22 22 23 23 24 23 23 24 24 24 24 24 23 22 23 23 24 23 23 23 23 22 22 21 21 21 21 21 20 19 19 21 21 20 20 20 21 22 22 22 22 26 30 32 33 33
10 12 12 13 13 8 3 2 2 5 6 8 12 15 16 17 19 19 19 20 22 23 21 21 23 23 22 22 23 22 22 22 22 23 23 23 23 22 22 22 22 21 21 21 21 21 19 19 20 20 19 19 20 21 21 21 21 20 21 24 27 30 32
10 13 14 15 17 14 9 5 3 5 9 10 7 8 10 13 16 17 18 19 21 21 19 20 21 20 20 21 21 21 22 22 21 22 22 22 22 21 21 21 21 21 21 21 21 20 20 19 19 19 20 20 19 19 20 20 20 19 18 18 22 25 28
9 14 16 17 19 18 15 12 8 7 9 10 9 7 8 9 11 13 14 17 19 19 18 18 19 19 20 20 19 20 21 21 21 21 20 21 22 20 20 20 21 21 22 21 20 19 19 20 20 19 20 20 19 18 19 19 18 17 16 15 16 19 21
10 14 16 17 18 18 16 14 13 12 11 10 8 9 10 11 10 9 10 11 14 15 15 16 17 17 18 19 18 17 18 19 20 20 19 19 20 20 19 19 19 19 19 19 21 21 20 19 19 19 20 20 19 17 17 16 15 15 16 15 14 14 14
10 14 16 17 17 18 18 17 15 14 13 11 10 9 9 9 9 8 7 7 9 12 13 14 14 14 15 16 17 17 17 17 18 19 19 19 19 18 19 19 18 17 17 16 18 23 22 19 16 16 17 18 17 16 15 14 11 11 13 14 15 15 13
12 13 16 18 19 18 18 18 17 16 14 13 12 11 10 10 9 7 6 5 6 9 11 12 13 13 13 14 14 15 16 17 17 18 18 18 17 17 18 18 15 15 16 14 14 18 22 21 18 15 14 15 14 11 12 13 11 10 10 11 11 14 15
15 17 18 20 20 19 18 18 18 17 16 14 13 13 12 11 10 7 5 4 5 7 9 11 12 12 12 12 12 12 13 14 15 15 16 17 17 15 16 16 13 11 12 12 12 14 17 20 20 19 17 16 14 10 8 11 12 12 12 11 10 11 14
Wind_Direction
199 198 197 194 193 194 192 191 190 189 189 189 190 191 191 191 190 189 188 187 188 188 188 189 191 194 195 199 204 202 200 202 203 204 206 208 209 207 204 205 207 210 215 219 220 219 218 218 218 219 220 221 221 222 226 230 233 232 229 229 230 231 231
200 199 197 194 194 196 194 191 190 190 190 190 190 190 191 191 190 189 188 187 187 187 187 188 190 193 194 197 202 202 199 200 203 204 205 207 207 206 205 205 206 209 214 219 220 218 217 217 217 218 220 223 225 225 226 231 233 231 228 227 228 229 230
203 199 196 195 194 195 194 191 191 191 190 190 190 191 192 191 190 190 188 186 186 186 186 188 190 192 194 196 201 201 199 200 202 203 205 207 206 206 204 204 207 210 214 217 218 218 218 217 216 217 220 224 227 227 227 230 232 232 228 224 226 229 229
208 203 198 197 196 195 193 192 192 191 191 191 191 192 191 190 190 190 189 187 186 185 187 189 190 192 193 195 198 199 198 199 201 204 207 208 207 205 204 204 207 211 214 216 217 217 217 217 216 217 220 223 224 225 227 228 229 230 227 226 227 229 229
210 206 201 198 198 196 193 193 193 192 192 192 192 191 190 189 189 190 191 190 189 188 188 189 190 192 193 194 196 198 198 199 201 205 207 207 207 204 204 206 207 210 214 215 215 214 214 214 215 216 218 221 223 223 225 227 227 228 226 227 229 230 231
209 206 203 198 197 196 193 194 194 194 194 193 191 190 189 189 190 191 192 191 192 191 189 190 191 192 193 195 196 197 198 199 201 204 204 204 204 204 205 207 208 210 212 213 213 212 211 213 215 216 216 219 221 222 224 226 227 227 226 227 229 230 232
209 204 202 199 198 196 193 195 196 195 195 194 191 189 188 190 192 192 193 193 193 192 191 191 192 192 193 195 196 196 196 197 198 200 201 202 204 205 206 207 207 209 210 211 212 211 210 211 213 214 215 218 219 220 222 224 224 225 225 227 228 229 231
208 201 202 200 198 197 194 195 196 195 194 193 190 188 190 192 192 192 194 194 194 194 193 194 193 193 193 193 195 196 196 196 196 198 200 201 203 205 206 206 206 208 208 210 211 210 210 210 212 213 214 216 217 218 219 220 220 222 224 225 227 228 230
207 201 203 202 200 198 196 194 195 193 191 190 190 189 190 190 191 193 194 194 194 195 195 195 194 193 192 192 194 195 196 196 196 197 198 200 203 205 205 205 206 206 207 210 210 209 210 210 211 211 211 213 215 214 216 216 217 219 221 223 224 226 229
207 202 203 204 201 199 196 193 191 191 189 189 191 191 190 190 192 193 194 194 195 196 196 195 193 192 191 191 193 194 194 195 196 197 198 201 203 205 205 206 206 206 207 209 210 209 209 209 210 209 209 211 212 212 213 213 214 216 219 220 221 224 227
210 204 204 207 204 198 195 190 187 188 187 187 190 191 190 191 193 193 194 195 195 196 195 193 192 191 191 191 193 193 194 195 196 197 198 201 204 205 206 207 206 206 206 208 209 208 207 207 208 208 209 210 211 211 211 212 213 214 216 219 221 222 226
221 209 209 214 210 201 195 189 186 186 185 186 190 191 190 191 193 193 194 195 196 194 193 192 192 191 190 191 192 193 194 195 197 198 199 201 204 205 206 207 207 206 206 207 208 208 207 206 207 208 209 210 211 211 212 212 213 214 216 218 220 222 225
222 216 214 216 211 203 196 191 189 187 186 188 190 191 191 191 193 194 194 195 195 193 192 191 191 190 190 191 192 192 194 195 197 198 199 201 203 204 204 206 207 206 205 205 206 207 207 208 208 208 209 210 212 212 212 212 212 213 215 217 218 220 223
226 228 217 206 199 197 195 194 192 189 188 190 192 193 193 193 194 193 193 193 193 192 192 190 190 190 190 191 192 193 194 195 195 196 197 199 200 202 204 205 206 206 205 205 205 207 209 209 209 209 209 210 212 212 212 211 212 212 213 214 216 218 221
254 246 226 206 196 195 196 195 192 189 187 190 192 194 194 195 195 194 193 192 192 192 192 190 189 190 190 190 192 193 192 192 193 193 194 195 196 198 201 202 204 204 204 205 206 208 211 211 211 209 209 210 211 211 212 212 212 212 211 211 212 215 220
281 271 251 221 203 198 198 197 194 191 188 189 192 194 195 195 195 195 194 192 191 191 191 189 189 189 190 191 192 191 189 188 189 190 191 192 193 195 197 199 201 202 203 205 207 209 211 211 212 211 211 210 209 210 210 212 213 215 215 214 212 212 217
308 304 297 269 232 213 205 202 200 196 191 191 194 195 196 195 195 195 194 192 191 191 189 188 188 189 190 191 190 187 185 185 185 187 188 190 190 191 194 197 199 201 202 204 207 209 210 210 212 213 213 211 210 210 211 213 215 217 220 221 219 214 214
316 313 311 301 282 253 228 214 206 200 197 197 197 197 197 195 194 194 194 193 192 190 189 188 189 189 189 189 186 183 183 183 183 185 186 187 188 189 192 194 197 199 201 204 206 207 208 210 212 213 214 214 214 214 215 216 217 219 223 226 226 224 219
314 312 309 303 294 279 259 240 220 207 203 201 198 198 197 194 193 193 193 192 190 189 189 189 188 188 187 186 183 182 182 181 182 184 185 186 187 188 190 193 197 200 201 203 205 206 208 211 212 213 214 215 217 217 218 220 220 222 226 229 230 230 227
312 311 308 302 293 283 272 261 243 222 210 204 200 200 198 195 194 193 191 189 188 188 189 189 187 186 185 184 182 181 180 181 183 185 185 186 186 188 190 194 197 200 202 203 205 207 209 211 212 213 214 215 218 220 221 223 223 224 228 231 233 233 231
308 307 304 300 296 291 283 270 256 236 218 209 202 198 196 194 193 191 187 186 186 187 188 187 186 186 184 183 182 180 181 182 184 186 186 186 187 190 193 196 198 200 203 205 207 208 209 211 213 213 213 215 217 220 223 225 226 226 229 233 234 234 233
305 302 300 298 295 290 283 269 255 240 223 212 204 196 193 192 190 188 187 185 185 185 186 186 186 186 184 184 183 182 183 185 185 186 187 187 190 194 196 198 199 201 202 205 208 210 209 211 213 213 213 215 216 219 224 226 226 226 229 233 235 233 232
299 296 296 296 293 286 279 265 252 240 223 210 202 196 193 191 188 186 186 185 184 184 185 184 185 186 185 185 186 185 185 186 186 187 188 190 193 196 198 199 199 200 201 203 206 208 209 210 213 214 215 216 216 218 223 226 226 227 229 232 233 231 229
297 294 296 298 294 287 276 258 242 232 217 204 199 195 190 188 186 183 183 184 184 184 184 185 186 186 185 186 187 186 185 187 187 188 190 192 195 198 198 198 199 199 200 202 205 208 209 210 213 215 216 216 217 217 221 226 227 227 229 231 231 231 228
294 295 298 296 294 290 276 251 232 223 210 200 196 191 185 184 182 180 180 183 183 183 184 186 186 186 186 186 186 185 184 186 187 189 191 194 196 198 197 197 198 199 199 202 205 208 209 211 213 216 217 218 219 219 222 226 228 229 230 230 231 231 227
290 296 297 296 299 298 282 247 221 213 203 195 192 186 180 179 178 176 178 181 182 184 186 187 187 187 186 185 183 182 183 184 187 189 192 195 195 196 197 197 198 199 199 202 206 208 210 212 213 216 218 219 220 220 222 225 227 229 230 230 231 231 226
290 294 294 299 305 302 282 237 211 208 201 191 186 180 175 175 176 175 176 179 182 188 189 187 185 184 183 182 181 181 182 184 187 189 192 194 194 195 198 199 199 200 201 203 206 208 210 212 214 218 220 221 221 222 223 224 225 227 230 231 231 232 227
295 296 297 302 302 294 275 235 213 210 199 184 179 177 175 176 176 173 174 180 186 189 187 183 182 181 180 180 180 181 182 184 186 188 190 192 193 194 198 200 202 203 203 205 208 208 208 210 213 217 221 222 222 223 224 225 225 226 229 231 232 233 230
316 308 305 307 306 305 291 243 214 206 195 182 179 180 177 176 175 172 175 183 186 184 181 179 179 179 178 179 179 180 182 184 185 187 191 193 193 195 198 200 202 204 204 206 209 208 209 211 213 218 222 223 225 226 226 227 227 226 227 230 232 233 233
352 336 325 327 326 338 337 263 216 201 190 180 179 180 177 174 172 172 177 181 179 177 177 177 176 176 176 177 179 179 181 183 185 188 192 194 194 196 198 199 200 203 204 205 208 209 210 212 215 219 224 226 228 229 229 229 231 231 230 231 232 233 234
18 17 6 5 360 10 44 319 222 183 178 178 178 177 175 174 172 172 174 174 171 173 174 172 172 174 175 176 178 179 179 183 187 191 193 194 194 196 198 199 199 201 201 204 207 209 210 212 216 218 221 225 228 229 229 230 230 232 233 233 234 235 235
24 32 27 25 16 18 76 119 91 93 109 143 166 173 177 178 176 171 168 167 168 170 170 170 171 173 175 176 177 179 181 184 189 192 195 196 197 198 199 200 200 200 200 202 206 208 210 213 216 215 216 221 225 226 228 229 228 228 231 233 233 234 235
19 36 34 34 28 25 37 55 83 93 74 69 97 149 169 176 176 170 164 165 169 170 169 171 173 174 176 179 180 182 186 188 191 193 195 196 198 200 201 202 201 200 199 201 204 205 206 211 214 215 215 219 223 225 226 226 224 222 222 223 224 226 230
12 37 35 35 35 35 36 35 43 70 73 63 69 86 99 121 147 156 158 165 172 174 174 175 177 179 181 182 183 186 189 190 191 193 194 195 198 201 202 202 203 204 204 204 204 204 205 209 213 215 217 219 222 222 223 223 221 219 216 213 209 211 218
4 31 29 29 35 42 46 44 45 53 61 62 64 66 69 77 92 109 129 153 168 174 176 177 180 182 182 183 185 187 188 189 191 193 195 195 196 200 202 203 204 206 207 207 207 208 210 213 214 216 219 221 222 222 222 224 226 226 223 217 209 201 203
7 26 27 28 32 39 46 49 49 51 55 58 62 69 75 76 74 82 101 131 160 171 173 173 175 179 182 184 187 189 189 191 193 196 198 199 196 195 196 198 201 202 202 204 206 209 213 216 215 215 219 221 222 226 229 229 228 226 223 221 221 216 209
10 24 26 30 32 33 37 41 43 47 49 52 59 67 77 79 77 83 102 127 159 175 178 177 178 183 188 190 192 193 194 196 197 197 199 204 203 193 185 187 193 197 200 204 204 205 210 216 217 214 214 214 217 225 230 228 227 230 229 225 225 223 219
12 26 28 30 31 31 32 33 36 40 43 45 51 59 67 71 67 65 81 118 151 172 181 182 183 187 192 191 189 189 193 198 200 199 199 203 206 196 182 178 179 182 194 208 210 206 207 213 218 220 219 217 215 211 213 222 230 239 242 236 228 223 221
Height
719 721 723 727 730 733 735 737 741 746 750 755 759 763 767 771 774 777 781 784 788 792 796 800 803 807 810 813 817 819 821 824 827 829 832 834 836 838 840 842 844 846 847 849 850 852 853 855 856 858 859 860 861 862 863 864 865 867 867 868 869 869 870
716 718 719 722 726 729 730 733 738 742 746 750 754 759 762 765 769 772 776 780 783 788 792 795 799 803 806 810 814 816 818 821 824 826 829 831 833 835 837 839 841 843 845 847 848 850 851 852 854 855 857 858 859 860 862 863 864 865 866 867 867 868 868
711 713 714 717 720 723 725 728 733 736 740 745 749 753 756 760 764 768 772 775 780 784 788 792 796 799 803 807 810 813 815 818 821 823 826 828 830 832 834 836 838 840 842 844 846 847 849 850 852 853 854 856 857 859 860 861 862 863 864 865 866 866 867
707 707 709 712 713 717 720 723 727 730 734 738 742 747 751 756 761 765 769 772 775 780 783 787 792 796 800 803 806 809 811 814 817 820 822 825 827 829 832 833 835 837 839 841 843 845 847 848 849 851 852 854 855 856 858 859 860 861 862 863 864 864 865
703 702 704 707 709 713 716 718 722 725 729 732 737 742 747 753 757 761 765 768 771 775 779 783 788 792 796 799 802 805 808 811 813 816 819 822 824 827 828 830 832 834 836 838 840 842 844 845 847 848 850 851 853 854 855 857 858 859 860 861 862 863 863
698 699 701 703 705 708 711 713 716 719 723 726 731 737 742 748 752 755 760 764 768 771 775 780 784 787 791 794 798 801 804 807 810 813 816 818 821 823 825 827 829 831 833 835 837 839 840 842 844 846 847 849 850 852 853 854 855 857 858 859 860 861 861
693 695 697 698 699 702 704 707 709 713 718 721 726 732 737 742 746 751 755 759 763 767 771 775 778 782 786 789 793 796 799 803 805 809 812 815 818 820 822 824 826 828 830 832 834 836 837 839 841 843 844 846 848 849 850 852 853 854 855 856 857 858 859
687 690 692 693 693 695 698 701 704 708 714 718 723 728 732 737 741 746 750 753 758 762 765 769 773 777 781 785 789 792 795 799 802 805 808 811 814 816 819 821 823 825 827 829 831 833 835 836 838 840 841 843 845 846 848 849 850 852 853 854 855 856 857
682 685 687 687 688 690 692 696 699 704 710 715 719 722 726 730 735 739 743 747 752 756 759 763 767 772 776 780 784 787 791 795 798 801 804 807 810 812 815 817 819 822 824 826 828 829 831 833 835 837 838 840 842 843 845 846 847 849 850 851 852 853 854
679 682 683 683 684 686 688 692 697 701 706 711 714 717 722 725 729 733 738 742 746 749 754 758 763 767 772 775 779 783 787 791 794 797 800 803 806 808 811 814 816 818 820 822 824 826 828 830 832 833 835 837 838 840 841 843 844 846 847 848 850 850 851
677 680 682 682 683 684 687 690 694 698 702 706 710 714 718 721 725 729 733 736 740 744 749 754 758 762 766 770 775 779 782 786 789 793 795 798 801 804 807 810 812 814 816 819 821 823 824 826 828 830 831 833 835 836 838 839 841 843 844 845 847 848 849
679 681 683 684 684 685 687 689 692 695 698 702 706 709 713 717 721 724 728 731 735 740 745 749 753 757 761 766 770 774 777 781 785 788 791 794 797 800 803 806 808 811 813 815 817 819 821 823 824 826 828 829 831 833 834 836 838 839 841 842 844 845 846
682 682 684 684 685 686 687 689 692 694 696 699 702 705 709 712 716 720 723 727 732 736 740 745 749 753 757 761 764 768 772 776 779 783 787 790 793 797 799 802 805 807 809 811 813 815 817 819 821 822 824 826 828 830 831 833 834 836 837 839 841 842 843
683 682 682 683 685 687 687 689 691 692 694 696 699 703 706 709 712 715 719 724 728 732 736 740 745 749 752 756 760 763 767 770 775 779 783 786 790 793 796 798 801 803 806 808 810 812 813 815 817 819 821 823 824 826 828 829 831 832 834 835 837 839 840
684 681 681 682 684 685 686 687 688 689 691 693 697 700 703 707 710 713 717 721 724 728 732 736 741 744 748 752 755 758 762 767 771 775 779 782 786 789 792 795 798 800 803 804 806 808 810 812 814 815 817 819 821 823 824 826 827 829 830 832 833 835 837
683 680 679 679 681 682 683 684 685 686 688 690 693 696 699 703 706 709 713 717 720 724 728 732 737 740 744 747 750 754 759 763 767 771 775 778 781 785 788 791 794 797 799 801 803 805 807 809 811 812 814 816 817 819 821 822 823 824 826 828 830 832 834
683 681 680 678 678 678 679 681 682 683 685 687 689 691 694 698 701 705 709 712 716 720 723 728 732 735 739 742 747 751 755 759 763 767 770 774 777 781 784 788 791 793 796 798 800 802 804 805 807 809 810 812 814 815 817 818 819 820 822 824 826 828 830
684 683 682 680 679 678 677 678 679 680 681 681 684 687 690 693 697 701 704 708 711 715 719 723 727 731 735 739 744 748 752 755 760 763 767 770 773 777 780 784 787 790 792 794 796 798 800 802 804 805 807 809 810 812 813 814 815 816 818 820 822 824 826
685 683 681 680 680 678 676 674 673 674 674 675 679 682 684 688 692 694 698 703 707 712 715 719 723 728 732 737 741 744 748 752 756 759 763 766 770 773 777 780 783 785 788 790 793 795 797 798 800 802 804 806 807 808 809 810 811 812 814 816 818 820 822
685 682 680 679 678 676 674 672 669 668 669 671 673 676 680 684 687 691 695 700 705 709 712 716 720 725 729 733 737 740 744 748 752 756 759 763 766 770 773 776 779 781 784 787 789 791 793 795 797 799 800 802 804 805 806 807 808 809 810 812 814 816 818
685 683 681 678 676 674 672 670 668 665 665 666 668 672 677 682 685 690 694 698 702 706 710 714 718 722 726 730 733 736 740 744 748 752 756 759 763 766 769 772 774 777 781 783 785 787 789 791 793 795 797 798 800 802 803 804 805 806 807 809 811 813 815
685 683 680 676 674 671 669 667 665 661 661 663 665 669 673 676 681 686 690 694 698 702 707 711 715 719 723 726 729 732 736 740 744 748 752 756 759 762 765 768 770 774 777 779 782 783 785 787 789 791 793 794 796 797 798 800 801 802 804 805 808 810 812
683 680 676 673 670 666 664 663 660 658 658 660 663 665 668 672 677 682 686 690 695 699 703 708 712 715 718 721 724 728 731 735 740 744 748 751 754 757 760 763 766 770 773 775 778 779 781 783 785 787 788 790 791 793 794 796 797 798 800 802 804 807 809
680 676 672 669 666 662 659 657 655 655 655 656 658 661 664 669 674 678 683 687 690 695 699 703 707 711 714 717 720 724 728 732 736 740 744 747 750 753 756 759 763 765 768 771 773 775 777 779 781 782 784 785 787 788 790 792 793 794 796 798 800 803 805
679 674 671 667 663 658 654 652 652 652 652 653 655 657 661 666 671 675 679 683 687 691 695 698 702 706 709 712 717 720 724 728 732 736 740 743 746 749 753 756 759 762 764 767 769 771 773 775 777 778 780 781 783 784 786 787 789 790 791 793 796 798 800
678 674 669 664 659 655 651 650 650 650 649 651 653 655 659 663 668 672 676 680 685 688 691 694 698 701 706 710 714 718 721 725 729 732 736 740 743 747 750 753 756 758 761 763 765 767 769 771 773 774 776 777 779 780 782 783 784 785 786 788 791 793 795
676 672 668 663 659 655 651 648 649 649 648 650 652 654 658 662 665 669 673 678 681 684 687 691 696 700 704 708 711 715 718 722 725 729 733 737 741 745 748 750 753 755 757 759 761 763 765 767 769 770 772 773 775 776 777 779 780 781 782 783 786 788 790
675 671 667 663 659 656 651 648 649 649 648 650 652 654 656 659 663 667 671 674 677 680 685 690 694 698 702 705 708 712 715 719 723 726 731 735 738 741 744 747 750 752 754 756 758 759 761 763 765 767 768 770 771 772 773 775 776 777 778 779 781 783 785
675 672 667 662 660 656 651 648 649 648 648 650 652 653 655 658 661 664 668 671 674 679 684 688 692 696 699 702 706 709 712 716 720 724 728 731 734 737 740 743 746 749 751 753 755 757 759 761 763 764 765 767 768 769 770 771 772 773 774 775 776 778 780
676 672 666 662 660 656 653 650 648 648 648 650 652 653 654 657 660 663 666 669 674 679 683 687 691 694 697 700 703 707 710 714 717 721 725 728 731 734 737 740 743 745 748 750 752 754 756 757 760 761 762 763 764 765 766 767 768 769 769 770 772 773 775
677 673 669 665 661 657 655 654 651 649 649 651 653 654 655 658 660 663 666 670 674 678 681 686 689 692 695 698 701 705 708 712 716 719 722 725 728 731 734 737 739 742 744 747 749 750 752 754 756 757 758 759 760 761 762 763 764 765 765 765 767 769 771
678 675 671 668 663 660 658 657 656 655 654 654 654 655 657 660 662 665 668 671 675 678 682 685 688 691 694 697 700 703 707 710 714 717 720 723 725 728 730 733 735 738 740 742 744 746 748 750 752 753 754 755 755 756 757 758 760 761 762 762 763 766 768
680 676 674 671 667 664 661 660 660 660 659 658 658 658 660 661 663 666 669 672 675 678 682 685 687 690 693 695 698 702 705 708 711 714 717 720 722 724 727 729 731 734 736 738 740 742 744 746 747 748 749 750 751 752 753 754 755 757 758 760 761 763 765
682 678 676 673 671 669 667 665 664 662 662 662 663 663 663 663 665 668 670 672 676 678 681 684 687 689 692 694 697 700 702 705 708 711 713 716 719 721 723 725 728 729 731 733 735 737 740 741 743 744 745 746 748 749 749 750 751 753 755 757 759 760 762
684 680 678 676 675 673 672 671 669 667 666 666 666 667 666 667 668 670 671 674 676 678 680 683 686 688 691 693 696 699 701 704 706 708 710 713 715 718 720 721 723 725 727 730 732 734 736 737 738 740 741 743 744 745 746 748 749 751 753 756 757 759 760
686 682 681 679 678 677 675 675 673 672 671 670 670 670 670 671 672 673 674 676 677 679 681 683 685 688 691 692 694 697 699 701 704 706 708 710 712 714 716 718 720 722 725 727 728 730 732 734 735 737 738 740 742 743 745 747 748 750 752 754 756 758 759
689 686 684 683 682 680 679 678 677 675 674 673 673 673 673 674 675 676 677 678 679 680 681 683 685 687 689 691 693 694 697 699 701 703 705 707 708 710 713 716 719 721 723 724 726 728 730 732 733 735 736 738 740 742 743 745 747 749 751 753 754 756 757
693 690 688 686 685 684 683 681 680 679 677 676 676 676 676 677 679 680 680 680 681 681 682 683 684 686 688 690 692 694 696 698 699 701 703 705 706 708 710 713 717 720 722 723 724 726 728 730 732 734 735 737 739 740 741 744 746 748 749 751 752 754 755